This is the latest recevied weather packets stored in our database for station/object EW1958. If no packets are shown the sender has not sent any weather packets the latest 10 day(s).
| Time | Temp. | Humidity | Pressure | Rain* | Wind** | Luminosity | Snow |
|---|---|---|---|---|---|---|---|
| 1777873386 | 15° C | 75% | 1012.3 hPa | 0 mm | - | - | - |
| 1777873086 | 15° C | 76% | 1012.3 hPa | 0 mm | - | - | - |
| 1777872915 | 15.56° C | 74% | 1012.2 hPa | 0 mm | - | - | - |
| 1777872485 | 15.56° C | 73% | 1012.3 hPa | 0 mm | - | - | - |
| 1777872339 | 15.56° C | 74% | 1012.3 hPa | 0 mm | - | - | - |
| 1777872039 | 15.56° C | 73% | 1012.3 hPa | 0 mm | - | - | - |
| 1777871580 | 16.11° C | 72% | 1012.4 hPa | 0 mm | - | - | - |
| 1777871409 | 16.11° C | 72% | 1012.4 hPa | 0 mm | - | - | - |
| 1777870979 | 16.11° C | 72% | 1012.3 hPa | 0 mm | - | - | - |
| 1777870679 | 16.67° C | 71% | 1012.3 hPa | 0 mm | - | - | - |
| 1777870533 | 16.67° C | 72% | 1012.3 hPa | 0 mm | - | - | - |
| 1777870075 | 16.67° C | 70% | 1012.3 hPa | 0 mm | - | - | - |
| 1777869929 | 17.22° C | 72% | 1012.2 hPa | 0 mm | - | - | - |
| 1777869602 | 17.22° C | 70% | 1012.3 hPa | 0 mm | - | - | - |
| 1777869170 | 17.22° C | 69% | 1012.3 hPa | 0 mm | - | - | - |
| 1777868865 | 17.78° C | 69% | 1012.3 hPa | 0 mm | - | - | - |
| 1777868565 | 17.78° C | 68% | 1012.3 hPa | 0 mm | - | - | - |
| 1777868264 | 17.78° C | 67% | 1012.3 hPa | 0 mm | - | - | - |
| 1777867962 | 18.33° C | 67% | 1012.3 hPa | 0 mm | - | - | - |
| 1777867809 | 18.33° C | 69% | 1012.3 hPa | 0 mm | - | - | - |
| 1777867508 | 18.33° C | 67% | 1012.2 hPa | 0 mm | - | - | - |
| 1777867185 | 18.89° C | 65% | 1012.1 hPa | 0 mm | - | - | - |
| 1777866908 | 18.89° C | 64% | 1012.1 hPa | 0 mm | - | - | - |
| 1777866586 | 19.44° C | 68% | 1012 hPa | 0 mm | - | - | - |
| 1777866153 | 19.44° C | 67% | 1012.1 hPa | 0 mm | - | - | - |
* Rain latest hour (hover to see other rain measurements)
** Current wind speed in m/s (hover to see current wind gust speed)